Time,TemperatureF,DewpointF,PressureIn,WindDirection,WindDirectionDegrees,WindSpeedMPH,WindSpeedGustMPH,Humidity,HourlyPrecipIn,Conditions,Clouds,dailyrainin,SoftwareType,DateUTC
2013-05-04 00:04:00,51.6,45.9,27.14,NNE,32,3.0,6.7,80,0.00,,,0.00,WSDL version 420,2013-05-04 04:04:00,
2013-05-04 00:09:00,51.5,45.7,27.14,NNE,15,2.4,6.7,80,0.00,,,0.00,WSDL version 420,2013-05-04 04:09:00,
2013-05-04 00:14:00,51.4,45.5,27.14,NE,42,2.5,5.4,80,0.00,,,0.00,WSDL version 420,2013-05-04 04:14:00,
2013-05-04 00:19:00,51.4,45.5,27.14,NNE,23,1.6,5.4,80,0.00,,,0.00,WSDL version 420,2013-05-04 04:19:00,
2013-05-04 00:24:00,51.4,45.5,27.14,NNE,23,2.9,5.6,80,0.00,,,0.00,WSDL version 420,2013-05-04 04:24:00,
2013-05-04 00:29:00,51.3,45.3,27.17,NNE,33,3.1,5.6,80,0.00,,,0.00,WSDL version 420,2013-05-04 04:29:00,
2013-05-04 00:34:00,51.3,45.4,27.17,NE,51,4.0,8.7,80,0.00,,,0.00,WSDL version 420,2013-05-04 04:34:00,
2013-05-04 00:39:00,51.3,44.8,27.17,ENE,58,3.3,8.7,78,0.00,,,0.00,WSDL version 420,2013-05-04 04:39:00,
2013-05-04 00:44:00,51.1,44.9,27.14,NE,48,2.2,6.5,79,0.00,,,0.00,WSDL version 420,2013-05-04 04:44:00,
2013-05-04 00:49:00,51.0,44.6,27.14,NE,45,3.7,6.0,78,0.00,,,0.00,WSDL version 420,2013-05-04 04:49:00,
2013-05-04 00:54:00,50.9,44.1,27.14,ENE,58,1.5,6.0,77,0.00,,,0.00,WSDL version 420,2013-05-04 04:54:00,
2013-05-04 00:59:00,50.8,43.8,27.14,NE,48,1.5,4.9,77,0.00,,,0.00,WSDL version 420,2013-05-04 04:59:00,
2013-05-04 01:04:00,50.7,43.2,27.14,NE,53,2.2,6.3,75,0.00,,,0.00,WSDL version 420,2013-05-04 05:04:00,
2013-05-04 01:09:00,50.6,43.2,27.14,NE,55,3.4,6.5,75,0.00,,,0.00,WSDL version 420,2013-05-04 05:09:00,
2013-05-04 01:14:00,50.2,42.7,27.14,NE,34,2.8,6.5,76,0.00,,,0.00,WSDL version 420,2013-05-04 05:14:00,
2013-05-04 01:19:00,49.9,42.8,27.14,NNE,30,2.4,6.0,77,0.00,,,0.00,WSDL version 420,2013-05-04 05:19:00,
2013-05-04 01:24:00,49.6,43.1,27.14,NNE,31,3.4,5.6,78,0.00,,,0.00,WSDL version 420,2013-05-04 05:24:00,
2013-05-04 01:29:00,49.4,43.0,27.14,ENE,70,2.2,7.6,79,0.00,,,0.00,WSDL version 420,2013-05-04 05:29:00,
2013-05-04 01:34:00,49.3,43.0,27.14,East,82,2.2,7.6,79,0.00,,,0.00,WSDL version 420,2013-05-04 05:34:00,
2013-05-04 01:39:00,49.3,42.7,27.14,ENE,78,3.4,5.6,77,0.00,,,0.00,WSDL version 420,2013-05-04 05:39:00,
2013-05-04 01:44:00,49.3,42.4,27.14,NNE,20,2.3,5.4,77,0.00,,,0.00,WSDL version 420,2013-05-04 05:44:00,
2013-05-04 01:49:00,49.3,42.2,27.14,ENE,73,3.0,8.1,76,0.00,,,0.00,WSDL version 420,2013-05-04 05:49:00,
2013-05-04 01:54:00,49.3,41.9,27.14,NE,51,2.4,8.1,76,0.00,,,0.00,WSDL version 420,2013-05-04 05:54:00,
2013-05-04 01:59:00,49.3,41.8,27.11,ENE,65,2.2,5.8,75,0.00,,,0.00,WSDL version 420,2013-05-04 05:59:00,
2013-05-04 02:04:00,49.1,41.5,27.11,NNE,23,3.3,5.4,75,0.00,,,0.00,WSDL version 420,2013-05-04 06:04:00,
2013-05-04 02:09:00,49.1,41.4,27.11,ENE,77,3.4,5.4,74,0.00,,,0.00,WSDL version 420,2013-05-04 06:09:00,
2013-05-04 02:14:00,49.0,40.8,27.11,East,93,3.7,5.6,73,0.00,,,0.00,WSDL version 420,2013-05-04 06:14:00,
2013-05-04 02:19:00,48.9,40.7,27.11,ENE,63,2.3,5.6,73,0.00,,,0.00,WSDL version 420,2013-05-04 06:19:00,
2013-05-04 02:24:00,48.7,40.0,27.11,NNE,28,3.7,6.3,72,0.00,,,0.00,WSDL version 420,2013-05-04 06:24:00,
2013-05-04 02:29:00,48.7,40.1,27.11,NE,45,3.2,6.3,72,0.00,,,0.00,WSDL version 420,2013-05-04 06:29:00,
2013-05-04 02:34:00,48.7,39.8,27.11,East,98,4.3,8.5,71,0.00,,,0.00,WSDL version 420,2013-05-04 06:34:00,
2013-05-04 02:39:00,48.7,39.9,27.11,WSW,240,4.2,8.7,71,0.00,,,0.00,WSDL version 420,2013-05-04 06:39:00,
2013-05-04 02:44:00,48.6,39.4,27.11,NE,48,3.5,8.7,71,0.00,,,0.00,WSDL version 420,2013-05-04 06:44:00,
2013-05-04 02:49:00,48.6,39.4,27.11,ENE,60,4.0,8.1,70,0.00,,,0.00,WSDL version 420,2013-05-04 06:49:00,
2013-05-04 02:54:00,48.5,39.3,27.11,NE,56,4.0,7.4,71,0.00,,,0.00,WSDL version 420,2013-05-04 06:54:00,
2013-05-04 02:59:00,48.4,39.6,27.11,East,90,2.8,6.3,72,0.00,,,0.00,WSDL version 420,2013-05-04 06:59:00,
2013-05-04 03:04:00,48.2,39.6,27.11,NE,55,4.1,7.6,72,0.00,,,0.00,WSDL version 420,2013-05-04 07:04:00,
2013-05-04 03:09:00,48.0,39.4,27.11,East,84,4.0,7.8,72,0.00,,,0.00,WSDL version 420,2013-05-04 07:09:00,
2013-05-04 03:14:00,47.8,39.2,27.11,East,80,3.4,7.8,72,0.00,,,0.00,WSDL version 420,2013-05-04 07:14:00,
2013-05-04 03:19:00,47.6,39.4,27.11,ENE,76,3.3,6.5,73,0.00,,,0.00,WSDL version 420,2013-05-04 07:19:00,
2013-05-04 03:24:00,47.4,38.9,27.11,East,93,4.2,8.5,72,0.00,,,0.00,WSDL version 420,2013-05-04 07:24:00,
2013-05-04 03:29:00,47.2,39.0,27.11,ENE,75,3.9,8.5,72,0.00,,,0.00,WSDL version 420,2013-05-04 07:29:00,
2013-05-04 03:34:00,46.9,38.4,27.11,East,79,5.6,9.8,72,0.00,,,0.00,WSDL version 420,2013-05-04 07:34:00,
2013-05-04 03:39:00,46.7,38.1,27.11,ENE,70,4.5,9.8,72,0.00,,,0.00,WSDL version 420,2013-05-04 07:39:00,
2013-05-04 03:44:00,46.4,37.9,27.11,East,82,4.4,6.5,72,0.00,,,0.00,WSDL version 420,2013-05-04 07:44:00,
2013-05-04 03:49:00,46.2,38.0,27.11,East,85,4.3,7.4,73,0.00,,,0.00,WSDL version 420,2013-05-04 07:49:00,
2013-05-04 03:54:00,46.0,37.6,27.11,East,101,6.4,11.0,72,0.00,,,0.00,WSDL version 420,2013-05-04 07:54:00,
2013-05-04 03:59:00,45.9,37.4,27.11,ENE,73,4.9,11.0,72,0.00,,,0.00,WSDL version 420,2013-05-04 07:59:00,
2013-05-04 04:04:00,45.8,37.7,27.11,ENE,78,7.0,12.8,73,0.00,,,0.00,WSDL version 420,2013-05-04 08:04:00,
2013-05-04 04:09:00,45.6,37.8,27.11,East,87,6.1,12.8,74,0.00,,,0.00,WSDL version 420,2013-05-04 08:09:00,
2013-05-04 04:14:00,45.5,37.7,27.11,East,83,5.5,9.6,74,0.00,,,0.00,WSDL version 420,2013-05-04 08:14:00,
2013-05-04 04:19:00,45.3,37.4,27.11,ENE,73,5.7,11.0,74,0.00,,,0.00,WSDL version 420,2013-05-04 08:19:00,
2013-05-04 04:24:00,45.0,37.2,27.11,ESE,105,4.9,13.2,74,0.00,,,0.00,WSDL version 420,2013-05-04 08:24:00,
2013-05-04 04:29:00,44.7,36.8,27.08,ENE,74,4.6,13.2,73,0.00,,,0.00,WSDL version 420,2013-05-04 08:29:00,
2013-05-04 04:34:00,44.6,36.0,27.08,East,80,5.0,13.4,71,0.00,,,0.00,WSDL version 420,2013-05-04 08:34:00,
2013-05-04 04:39:00,44.4,35.4,27.08,NNW,329,6.3,13.4,70,0.00,,,0.00,WSDL version 420,2013-05-04 08:39:00,
2013-05-04 04:44:00,44.2,35.2,27.11,ESE,107,7.9,13.9,70,0.00,,,0.00,WSDL version 420,2013-05-04 08:44:00,
2013-05-04 04:49:00,44.1,35.4,27.11,ENE,63,4.7,13.9,72,0.00,,,0.00,WSDL version 420,2013-05-04 08:49:00,
2013-05-04 04:54:00,43.9,35.8,27.11,East,84,4.8,9.8,74,0.00,,,0.00,WSDL version 420,2013-05-04 08:54:00,
2013-05-04 04:59:00,43.8,36.2,27.11,ENE,63,5.4,9.8,75,0.00,,,0.00,WSDL version 420,2013-05-04 08:59:00,
2013-05-04 05:04:00,43.7,36.3,27.11,ESE,110,6.6,10.7,75,0.00,,,0.00,WSDL version 420,2013-05-04 09:04:00,
2013-05-04 05:09:00,43.5,36.5,27.11,East,98,5.5,10.7,76,0.00,,,0.00,WSDL version 420,2013-05-04 09:09:00,
2013-05-04 05:14:00,43.4,36.4,27.11,ENE,78,4.5,10.7,76,0.00,,,0.00,WSDL version 420,2013-05-04 09:14:00,
2013-05-04 05:19:00,43.3,36.3,27.11,ESE,104,3.4,12.3,77,0.00,,,0.00,WSDL version 420,2013-05-04 09:19:00,
2013-05-04 05:24:00,43.3,36.5,27.11,ESE,110,6.3,12.3,77,0.00,,,0.00,WSDL version 420,2013-05-04 09:24:00,
2013-05-04 05:29:00,43.2,36.6,27.08,East,90,4.5,11.2,77,0.00,,,0.00,WSDL version 420,2013-05-04 09:29:00,
2013-05-04 05:34:00,43.2,36.6,27.08,East,93,4.5,11.2,78,0.00,,,0.00,WSDL version 420,2013-05-04 09:34:00,
2013-05-04 05:39:00,43.2,36.8,27.08,East,83,3.5,6.0,78,0.00,,,0.00,WSDL version 420,2013-05-04 09:39:00,
2013-05-04 05:44:00,43.2,37.0,27.08,East,93,3.9,13.0,79,0.00,,,0.00,WSDL version 420,2013-05-04 09:44:00,
2013-05-04 05:49:00,43.2,37.1,27.08,East,100,3.0,13.0,79,0.00,,,0.00,WSDL version 420,2013-05-04 09:49:00,
2013-05-04 05:54:00,43.2,37.1,27.08,ENE,74,2.9,8.7,79,0.00,,,0.00,WSDL version 420,2013-05-04 09:54:00,
2013-05-04 05:59:00,43.1,36.7,27.11,East,85,3.8,6.0,78,0.00,,,0.00,WSDL version 420,2013-05-04 09:59:00,
2013-05-04 06:04:00,43.0,36.3,27.11,SE,135,5.0,12.1,77,0.00,,,0.00,WSDL version 420,2013-05-04 10:04:00,
2013-05-04 06:09:00,43.0,36.5,27.11,ENE,73,2.4,12.1,78,0.00,,,0.00,WSDL version 420,2013-05-04 10:09:00,
2013-05-04 06:14:00,43.0,36.9,27.11,East,87,3.0,7.2,79,0.00,,,0.00,WSDL version 420,2013-05-04 10:14:00,
2013-05-04 06:19:00,42.8,36.7,27.11,East,93,3.7,8.5,79,0.00,,,0.00,WSDL version 420,2013-05-04 10:19:00,
2013-05-04 06:24:00,42.7,36.9,27.11,ENE,75,3.1,8.5,80,0.00,,,0.00,WSDL version 420,2013-05-04 10:24:00,
2013-05-04 06:29:00,42.6,37.2,27.11,ENE,70,4.3,7.6,81,0.00,,,0.00,WSDL version 420,2013-05-04 10:29:00,
2013-05-04 06:34:00,42.4,37.2,27.11,East,90,4.8,7.6,82,0.00,,,0.00,WSDL version 420,2013-05-04 10:34:00,
2013-05-04 06:39:00,42.3,37.2,27.11,ENE,65,4.3,8.5,82,0.00,,,0.00,WSDL version 420,2013-05-04 10:39:00,
2013-05-04 06:44:00,42.1,37.1,27.11,ENE,78,3.9,8.5,82,0.00,,,0.00,WSDL version 420,2013-05-04 10:44:00,
2013-05-04 06:49:00,42.1,37.1,27.11,NE,42,3.6,6.5,82,0.00,,,0.00,WSDL version 420,2013-05-04 10:49:00,
2013-05-04 06:54:00,42.0,37.1,27.11,East,84,4.9,9.2,82,0.00,,,0.00,WSDL version 420,2013-05-04 10:54:00,
2013-05-04 06:59:00,41.9,36.9,27.11,ESE,113,3.1,9.2,82,0.00,,,0.00,WSDL version 420,2013-05-04 10:59:00,
2013-05-04 07:04:00,41.9,37.3,27.11,East,79,3.8,9.4,83,0.00,,,0.00,WSDL version 420,2013-05-04 11:04:00,
2013-05-04 07:09:00,41.9,37.2,27.11,East,79,2.3,9.4,83,0.00,,,0.00,WSDL version 420,2013-05-04 11:09:00,
2013-05-04 07:14:00,41.9,37.3,27.11,East,84,2.5,6.5,84,0.00,,,0.00,WSDL version 420,2013-05-04 11:14:00,
2013-05-04 07:19:00,41.9,37.6,27.11,ENE,76,3.3,6.5,84,0.00,,,0.00,WSDL version 420,2013-05-04 11:19:00,
2013-05-04 07:24:00,41.9,37.6,27.11,ENE,78,2.5,4.9,84,0.00,,,0.00,WSDL version 420,2013-05-04 11:24:00,
2013-05-04 07:29:00,41.9,37.5,27.11,East,90,3.5,6.3,84,0.00,,,0.00,WSDL version 420,2013-05-04 11:29:00,
2013-05-04 07:34:00,41.9,37.5,27.11,ESE,108,3.2,6.3,84,0.00,,,0.00,WSDL version 420,2013-05-04 11:34:00,
2013-05-04 07:39:00,41.9,37.9,27.11,ENE,70,2.8,5.8,86,0.00,,,0.00,WSDL version 420,2013-05-04 11:39:00,
2013-05-04 07:44:00,41.9,37.9,27.11,East,88,2.3,5.8,86,0.00,,,0.00,WSDL version 420,2013-05-04 11:44:00,
2013-05-04 07:49:00,42.1,38.2,27.11,East,82,3.2,6.0,87,0.00,,,0.00,WSDL version 420,2013-05-04 11:49:00,
2013-05-04 07:54:00,42.1,38.4,27.11,East,88,3.2,6.0,87,0.00,,,0.00,WSDL version 420,2013-05-04 11:54:00,
2013-05-04 08:01:00,42.0,38.3,27.11,ENE,76,3.2,5.4,87,0.00,,,0.00,WSDL version 420,2013-05-04 12:01:00,
2013-05-04 08:06:00,41.9,38.5,27.11,ENE,71,3.7,7.2,88,0.00,,,0.00,WSDL version 420,2013-05-04 12:06:00,
2013-05-04 08:13:00,41.9,38.5,27.11,East,80,2.6,4.9,88,0.00,,,0.00,WSDL version 420,2013-05-04 12:13:00,
2013-05-04 08:18:00,41.9,38.5,27.11,East,90,2.9,5.4,88,0.00,,,0.00,WSDL version 420,2013-05-04 12:18:00,
2013-05-04 08:23:00,41.9,38.5,27.11,NE,56,2.7,5.4,88,0.00,,,0.00,WSDL version 420,2013-05-04 12:23:00,
2013-05-04 08:28:00,41.9,38.9,27.11,ENE,75,3.7,5.6,89,0.00,,,0.00,WSDL version 420,2013-05-04 12:28:00,
2013-05-04 08:33:00,41.9,38.9,27.11,ENE,59,2.9,6.0,89,0.00,,,0.00,WSDL version 420,2013-05-04 12:33:00,
2013-05-04 08:38:00,41.9,39.2,27.11,East,83,4.1,6.3,90,0.00,,,0.00,WSDL version 420,2013-05-04 12:38:00,
2013-05-04 08:43:00,42.0,39.4,27.11,ENE,73,3.1,6.3,91,0.00,,,0.00,WSDL version 420,2013-05-04 12:43:00,
2013-05-04 08:48:00,42.1,39.7,27.11,NE,55,2.7,4.3,91,0.00,,,0.00,WSDL version 420,2013-05-04 12:48:00,
2013-05-04 08:53:00,42.1,39.7,27.11,East,84,2.9,7.4,91,0.00,,,0.00,WSDL version 420,2013-05-04 12:53:00,
2013-05-04 08:58:00,42.1,39.8,27.11,ENE,65,1.9,7.4,92,0.00,,,0.00,WSDL version 420,2013-05-04 12:58:00,
2013-05-04 09:03:00,42.1,40.0,27.11,East,100,2.9,6.0,92,0.00,,,0.00,WSDL version 420,2013-05-04 13:03:00,
2013-05-04 09:08:00,42.1,40.0,27.11,ENE,70,2.7,6.0,92,0.00,,,0.00,WSDL version 420,2013-05-04 13:08:00,
2013-05-04 09:13:00,42.1,40.2,27.11,ENE,65,2.4,4.0,93,0.00,,,0.00,WSDL version 420,2013-05-04 13:13:00,
2013-05-04 09:18:00,42.1,40.3,27.11,ENE,62,2.2,6.5,93,0.00,,,0.00,WSDL version 420,2013-05-04 13:18:00,
2013-05-04 09:23:00,42.1,40.3,27.11,NE,55,2.9,6.5,93,0.00,,,0.00,WSDL version 420,2013-05-04 13:23:00,
2013-05-04 09:28:00,42.3,40.5,27.11,East,96,3.5,4.7,93,0.00,,,0.00,WSDL version 420,2013-05-04 13:28:00,
2013-05-04 09:33:00,42.3,40.5,27.11,ESE,104,1.8,4.3,93,0.00,,,0.00,WSDL version 420,2013-05-04 13:33:00,
2013-05-04 09:38:00,42.3,40.8,27.11,ENE,62,2.7,6.9,94,0.00,,,0.00,WSDL version 420,2013-05-04 13:38:00,
2013-05-04 09:43:00,42.3,40.8,27.11,ENE,73,1.1,6.9,94,0.00,,,0.00,WSDL version 420,2013-05-04 13:43:00,
2013-05-04 09:48:00,42.3,40.8,27.11,ENE,63,2.7,4.3,94,0.00,,,0.00,WSDL version 420,2013-05-04 13:48:00,
2013-05-04 09:53:00,42.4,41.0,27.11,East,90,3.6,6.3,94,0.00,,,0.00,WSDL version 420,2013-05-04 13:53:00,
2013-05-04 09:58:00,42.4,41.0,27.11,ENE,65,2.7,6.3,94,0.00,,,0.00,WSDL version 420,2013-05-04 13:58:00,
2013-05-04 10:03:00,42.4,41.0,27.11,ENE,65,3.3,5.4,96,0.00,,,0.00,WSDL version 420,2013-05-04 14:03:00,
2013-05-04 10:08:00,42.3,41.1,27.11,ESE,107,3.5,7.8,96,0.00,,,0.00,WSDL version 420,2013-05-04 14:08:00,
2013-05-04 10:13:00,42.4,41.2,27.11,ENE,76,2.4,7.8,96,0.00,,,0.00,WSDL version 420,2013-05-04 14:13:00,
2013-05-04 10:18:00,42.4,41.2,27.11,East,87,4.3,7.8,96,0.00,,,0.00,WSDL version 420,2013-05-04 14:18:00,
2013-05-04 10:23:00,42.3,41.1,27.11,East,100,2.7,7.8,96,0.00,,,0.00,WSDL version 420,2013-05-04 14:23:00,
2013-05-04 10:28:00,42.4,41.4,27.11,East,90,3.8,7.4,97,0.00,,,0.00,WSDL version 420,2013-05-04 14:28:00,
2013-05-04 10:33:00,42.4,41.6,27.11,ENE,58,4.0,7.4,97,0.00,,,0.00,WSDL version 420,2013-05-04 14:33:00,
2013-05-04 10:38:00,42.4,41.6,27.11,ENE,59,2.5,5.6,97,0.00,,,0.00,WSDL version 420,2013-05-04 14:38:00,
2013-05-04 10:43:00,42.4,41.6,27.11,NE,34,2.7,4.9,97,0.00,,,0.00,WSDL version 420,2013-05-04 14:43:00,
2013-05-04 10:48:00,42.4,41.6,27.11,NE,53,2.2,4.9,97,0.00,,,0.00,WSDL version 420,2013-05-04 14:48:00,
2013-05-04 10:53:00,42.5,41.6,27.11,East,79,2.7,4.3,97,0.00,,,0.00,WSDL version 420,2013-05-04 14:53:00,
2013-05-04 10:58:00,42.7,41.8,27.11,East,90,4.1,6.3,98,0.00,,,0.00,WSDL version 420,2013-05-04 14:58:00,
2013-05-04 11:03:00,42.8,41.9,27.11,ENE,73,4.3,6.5,97,0.00,,,0.00,WSDL version 420,2013-05-04 15:03:00,
2013-05-04 11:08:00,42.8,42.0,27.11,ENE,73,3.0,6.5,98,0.00,,,0.00,WSDL version 420,2013-05-04 15:08:00,
2013-05-04 11:13:00,42.8,42.2,27.11,East,95,4.7,7.2,98,0.00,,,0.00,WSDL version 420,2013-05-04 15:13:00,
2013-05-04 11:18:00,42.8,42.2,27.11,East,79,3.0,7.2,98,0.00,,,0.00,WSDL version 420,2013-05-04 15:18:00,
2013-05-04 11:23:00,42.8,42.2,27.11,East,79,3.9,8.7,98,0.00,,,0.00,WSDL version 420,2013-05-04 15:23:00,
2013-05-04 11:28:00,42.8,42.2,27.11,ENE,76,3.6,8.7,98,0.00,,,0.00,WSDL version 420,2013-05-04 15:28:00,
2013-05-04 11:33:00,42.8,42.2,27.11,ENE,73,3.2,6.0,98,0.00,,,0.00,WSDL version 420,2013-05-04 15:33:00,
2013-05-04 11:38:00,42.8,42.2,27.11,East,87,4.3,5.6,98,0.00,,,0.00,WSDL version 420,2013-05-04 15:38:00,
2013-05-04 11:43:00,42.7,42.3,27.11,ESE,113,4.6,7.4,99,0.00,,,0.00,WSDL version 420,2013-05-04 15:43:00,
2013-05-04 11:48:00,42.8,42.2,27.11,ENE,73,4.4,7.4,98,0.00,,,0.00,WSDL version 420,2013-05-04 15:48:00,
2013-05-04 11:53:00,42.8,42.3,27.11,ENE,73,4.0,6.0,99,0.00,,,0.00,WSDL version 420,2013-05-04 15:53:00,
2013-05-04 11:58:00,42.8,42.5,27.11,NE,50,3.6,10.3,99,0.00,,,0.00,WSDL version 420,2013-05-04 15:58:00,
2013-05-04 12:03:00,43.0,42.7,27.11,NE,45,3.1,10.3,99,0.00,,,0.00,WSDL version 420,2013-05-04 16:03:00,
2013-05-04 12:08:00,43.0,42.7,27.11,East,90,2.3,6.9,99,0.00,,,0.00,WSDL version 420,2013-05-04 16:08:00,
2013-05-04 12:13:00,43.0,42.7,27.11,East,98,4.4,6.9,99,0.00,,,0.00,WSDL version 420,2013-05-04 16:13:00,
2013-05-04 12:18:00,43.0,42.7,27.08,ENE,60,2.9,6.9,99,0.00,,,0.00,WSDL version 420,2013-05-04 16:18:00,
2013-05-04 12:23:00,43.1,42.8,27.08,NE,53,2.2,6.3,99,0.00,,,0.00,WSDL version 420,2013-05-04 16:23:00,
2013-05-04 12:28:00,43.2,42.9,27.08,East,79,4.3,7.2,99,0.00,,,0.00,WSDL version 420,2013-05-04 16:28:00,
2013-05-04 12:33:00,43.2,42.9,27.08,ENE,65,3.0,7.2,99,0.00,,,0.00,WSDL version 420,2013-05-04 16:33:00,
2013-05-04 12:38:00,43.2,42.9,27.08,ESE,115,3.8,6.5,99,0.00,,,0.00,WSDL version 420,2013-05-04 16:38:00,
2013-05-04 12:43:00,43.2,43.2,27.08,East,90,4.5,6.5,100,0.00,,,0.00,WSDL version 420,2013-05-04 16:43:00,
2013-05-04 12:48:00,43.3,43.3,27.08,ENE,59,1.6,6.5,100,0.00,,,0.00,WSDL version 420,2013-05-04 16:48:00,
2013-05-04 12:53:00,43.3,43.3,27.08,East,90,4.1,8.1,100,0.00,,,0.00,WSDL version 420,2013-05-04 16:53:00,
2013-05-04 12:58:00,43.3,43.3,27.08,East,101,3.7,8.1,100,0.00,,,0.00,WSDL version 420,2013-05-04 16:58:00,
2013-05-04 13:03:00,43.5,43.5,27.08,East,90,2.3,5.8,100,0.00,,,0.00,WSDL version 420,2013-05-04 17:03:00,
2013-05-04 13:08:00,43.5,43.5,27.08,East,93,3.5,8.7,100,0.00,,,0.00,WSDL version 420,2013-05-04 17:08:00,
2013-05-04 13:13:00,43.5,43.5,27.08,East,82,4.5,8.7,100,0.00,,,0.00,WSDL version 420,2013-05-04 17:13:00,
2013-05-04 13:18:00,43.5,43.5,27.08,ESE,107,4.3,8.5,100,0.00,,,0.00,WSDL version 420,2013-05-04 17:18:00,
2013-05-04 13:23:00,43.6,43.6,27.08,East,101,4.4,8.5,100,0.00,,,0.00,WSDL version 420,2013-05-04 17:23:00,
2013-05-04 13:28:00,43.7,43.7,27.08,ESE,123,4.2,8.5,100,0.00,,,0.00,WSDL version 420,2013-05-04 17:28:00,
2013-05-04 13:33:00,43.9,43.9,27.08,ENE,74,4.2,8.1,100,0.00,,,0.00,WSDL version 420,2013-05-04 17:33:00,
2013-05-04 13:38:00,44.0,44.0,27.08,ENE,65,2.8,6.3,100,0.00,,,0.00,WSDL version 420,2013-05-04 17:38:00,
2013-05-04 13:43:00,44.1,44.1,27.08,NE,48,3.1,4.9,100,0.00,,,0.00,WSDL version 420,2013-05-04 17:43:00,
2013-05-04 13:48:00,44.2,44.1,27.08,NE,56,4.0,6.3,100,0.00,,,0.00,WSDL version 420,2013-05-04 17:48:00,
2013-05-04 13:53:00,44.1,44.1,27.08,ENE,61,2.3,6.3,100,0.00,,,0.00,WSDL version 420,2013-05-04 17:53:00,
2013-05-04 13:58:00,44.1,44.1,27.08,NNE,28,4.3,7.6,100,0.00,,,0.00,WSDL version 420,2013-05-04 17:58:00,
2013-05-04 14:03:00,44.1,44.1,27.08,East,80,4.7,7.6,100,0.00,,,0.00,WSDL version 420,2013-05-04 18:03:00,
2013-05-04 14:08:00,44.1,44.1,27.08,East,100,3.1,6.3,100,0.00,,,0.00,WSDL version 420,2013-05-04 18:08:00,
2013-05-04 14:13:00,44.1,44.1,27.08,NE,51,3.8,6.0,100,0.00,,,0.00,WSDL version 420,2013-05-04 18:13:00,
2013-05-04 14:18:00,44.1,44.1,27.08,East,84,2.1,6.0,100,0.00,,,0.00,WSDL version 420,2013-05-04 18:18:00,
2013-05-04 14:23:00,44.2,44.2,27.08,East,79,3.7,5.8,100,0.00,,,0.00,WSDL version 420,2013-05-04 18:23:00,
2013-05-04 14:28:00,44.1,44.1,27.08,ENE,68,1.8,5.8,100,0.00,,,0.00,WSDL version 420,2013-05-04 18:28:00,
2013-05-04 14:33:00,44.3,44.3,27.08,East,96,3.1,5.6,100,0.00,,,0.00,WSDL version 420,2013-05-04 18:33:00,
2013-05-04 14:38:00,44.3,44.3,27.08,ENE,65,4.4,8.5,100,0.00,,,0.00,WSDL version 420,2013-05-04 18:38:00,
2013-05-04 14:43:00,44.2,44.2,27.08,East,93,4.4,8.5,100,0.00,,,0.00,WSDL version 420,2013-05-04 18:43:00,
2013-05-04 14:48:00,44.2,44.2,27.08,ESE,109,5.3,8.7,100,0.00,,,0.00,WSDL version 420,2013-05-04 18:48:00,
2013-05-04 14:53:00,44.2,44.2,27.08,ENE,70,2.1,8.7,100,0.00,,,0.00,WSDL version 420,2013-05-04 18:53:00,
2013-05-04 14:58:00,44.3,44.3,27.08,ESE,109,2.8,8.1,100,0.00,,,0.00,WSDL version 420,2013-05-04 18:58:00,
2013-05-04 15:03:00,44.4,44.4,27.08,NE,55,2.4,8.1,100,0.00,,,0.00,WSDL version 420,2013-05-04 19:03:00,
2013-05-04 15:08:00,44.4,44.4,27.08,ENE,65,2.5,5.6,100,0.00,,,0.00,WSDL version 420,2013-05-04 19:08:00,
2013-05-04 15:13:00,44.6,44.6,27.08,NE,56,4.0,7.2,100,0.00,,,0.00,WSDL version 420,2013-05-04 19:13:00,
2013-05-04 15:18:00,44.6,44.6,27.05,ENE,68,3.7,7.4,100,0.00,,,0.00,WSDL version 420,2013-05-04 19:18:00,
2013-05-04 15:23:00,44.6,44.6,27.05,ESE,103,5.1,7.6,100,0.00,,,0.00,WSDL version 420,2013-05-04 19:23:00,
2013-05-04 15:28:00,44.6,44.6,27.05,ENE,73,3.2,7.6,100,0.00,,,0.00,WSDL version 420,2013-05-04 19:28:00,
2013-05-04 15:33:00,44.7,44.7,27.05,East,90,2.3,6.0,100,0.00,,,0.00,WSDL version 420,2013-05-04 19:33:00,
2013-05-04 15:38:00,44.8,44.8,27.05,East,90,3.3,7.2,100,0.00,,,0.00,WSDL version 420,2013-05-04 19:38:00,
2013-05-04 15:43:00,44.8,44.8,27.05,East,87,3.3,7.2,100,0.00,,,0.00,WSDL version 420,2013-05-04 19:43:00,
2013-05-04 15:48:00,45.0,45.0,27.05,NE,43,1.2,5.6,100,0.00,,,0.00,WSDL version 420,2013-05-04 19:48:00,
2013-05-04 15:53:00,45.1,45.1,27.05,East,93,3.0,3.8,100,0.00,,,0.00,WSDL version 420,2013-05-04 19:53:00,
2013-05-04 15:58:00,45.2,45.2,27.05,NNE,23,3.4,6.5,100,0.00,,,0.00,WSDL version 420,2013-05-04 19:58:00,
2013-05-04 16:03:00,45.4,45.4,27.05,NE,40,1.3,6.5,100,0.00,,,0.00,WSDL version 420,2013-05-04 20:03:00,
2013-05-04 16:08:00,45.5,45.5,27.05,NE,51,2.1,4.3,100,0.00,,,0.00,WSDL version 420,2013-05-04 20:08:00,
2013-05-04 16:13:00,45.6,45.6,27.05,ENE,70,2.5,5.8,100,0.00,,,0.00,WSDL version 420,2013-05-04 20:13:00,
2013-05-04 16:18:00,45.7,45.7,27.05,ENE,68,1.5,5.8,100,0.00,,,0.00,WSDL version 420,2013-05-04 20:18:00,
2013-05-04 16:23:00,45.8,45.8,27.05,NNE,28,1.9,4.3,100,0.00,,,0.00,WSDL version 420,2013-05-04 20:23:00,
2013-05-04 16:28:00,45.9,45.9,27.05,East,80,1.1,3.8,100,0.00,,,0.00,WSDL version 420,2013-05-04 20:28:00,
2013-05-04 16:33:00,45.9,45.9,27.05,ENE,70,3.0,4.9,100,0.00,,,0.00,WSDL version 420,2013-05-04 20:33:00,
2013-05-04 16:38:00,46.0,46.0,27.05,East,85,1.4,4.9,100,0.00,,,0.00,WSDL version 420,2013-05-04 20:38:00,
2013-05-04 16:43:00,46.0,46.0,27.05,ENE,70,1.1,4.3,100,0.00,,,0.00,WSDL version 420,2013-05-04 20:43:00,
2013-05-04 16:48:00,46.1,46.1,27.05,ENE,73,1.6,3.6,100,0.00,,,0.00,WSDL version 420,2013-05-04 20:48:00,
2013-05-04 16:53:00,46.2,46.2,27.05,East,84,1.6,4.0,100,0.00,,,0.00,WSDL version 420,2013-05-04 20:53:00,
2013-05-04 16:58:00,46.3,46.3,27.05,East,88,2.0,4.5,100,0.00,,,0.00,WSDL version 420,2013-05-04 20:58:00,
2013-05-04 17:03:00,46.4,46.4,27.05,SSE,164,2.1,4.9,100,0.00,,,0.00,WSDL version 420,2013-05-04 21:03:00,
2013-05-04 17:08:00,46.4,46.4,27.05,NE,55,1.2,4.9,100,0.00,,,0.00,WSDL version 420,2013-05-04 21:08:00,
2013-05-04 17:13:00,46.6,46.6,27.05,ESE,106,1.8,5.4,100,0.00,,,0.00,WSDL version 420,2013-05-04 21:13:00,
2013-05-04 17:18:00,46.7,46.7,27.05,ENE,59,0.7,5.4,100,0.00,,,0.00,WSDL version 420,2013-05-04 21:18:00,
2013-05-04 17:23:00,46.8,46.8,27.05,ENE,75,1.0,4.0,100,0.00,,,0.00,WSDL version 420,2013-05-04 21:23:00,
2013-05-04 17:28:00,46.8,46.8,27.05,ENE,62,2.4,5.6,100,0.00,,,0.00,WSDL version 420,2013-05-04 21:28:00,
2013-05-04 17:33:00,46.8,46.8,27.05,ENE,75,2.2,5.6,100,0.00,,,0.00,WSDL version 420,2013-05-04 21:33:00,
2013-05-04 17:38:00,46.8,46.8,27.05,East,93,1.8,3.6,100,0.00,,,0.00,WSDL version 420,2013-05-04 21:38:00,
2013-05-04 17:43:00,46.8,46.8,27.05,ENE,77,1.1,3.4,100,0.00,,,0.00,WSDL version 420,2013-05-04 21:43:00,
2013-05-04 17:48:00,46.8,46.8,27.02,ENE,68,1.3,3.4,100,0.00,,,0.00,WSDL version 420,2013-05-04 21:48:00,
2013-05-04 17:53:00,46.8,46.8,27.02,ENE,68,2.5,4.0,100,0.00,,,0.00,WSDL version 420,2013-05-04 21:53:00,
2013-05-04 17:58:00,46.6,46.6,27.02,East,93,1.3,4.0,100,0.00,,,0.00,WSDL version 420,2013-05-04 21:58:00,
2013-05-04 18:03:00,46.6,46.6,27.05,ENE,75,2.2,3.1,100,0.00,,,0.00,WSDL version 420,2013-05-04 22:03:00,
2013-05-04 18:08:00,46.6,46.6,27.05,East,84,2.8,8.7,100,0.00,,,0.00,WSDL version 420,2013-05-04 22:08:00,
2013-05-04 18:13:00,46.6,46.6,27.05,East,90,2.4,8.7,100,0.00,,,0.00,WSDL version 420,2013-05-04 22:13:00,
2013-05-04 18:18:00,46.8,46.8,27.02,ENE,70,2.4,5.4,100,0.00,,,0.00,WSDL version 420,2013-05-04 22:18:00,
2013-05-04 18:23:00,46.8,46.8,27.02,ENE,70,3.7,6.0,100,0.00,,,0.00,WSDL version 420,2013-05-04 22:23:00,
2013-05-04 18:28:00,46.8,46.8,27.02,East,101,3.7,6.0,100,0.00,,,0.00,WSDL version 420,2013-05-04 22:28:00,
2013-05-04 18:33:00,46.8,46.8,27.02,ENE,68,3.4,5.8,100,0.00,,,0.00,WSDL version 420,2013-05-04 22:33:00,
2013-05-04 18:38:00,46.8,46.8,27.02,East,84,2.8,4.9,99,0.00,,,0.00,WSDL version 420,2013-05-04 22:38:00,
2013-05-04 18:43:00,46.8,46.5,27.02,East,79,3.1,6.3,99,0.00,,,0.00,WSDL version 420,2013-05-04 22:43:00,
2013-05-04 18:48:00,46.9,46.6,27.02,ENE,60,3.4,6.3,99,0.00,,,0.00,WSDL version 420,2013-05-04 22:48:00,
2013-05-04 18:53:00,46.9,46.6,27.02,ENE,64,1.4,5.4,99,0.00,,,0.00,WSDL version 420,2013-05-04 22:53:00,
2013-05-04 18:58:00,46.8,46.5,27.02,ENE,76,2.2,5.8,99,0.00,,,0.00,WSDL version 420,2013-05-04 22:58:00,
2013-05-04 19:03:00,46.8,46.5,27.02,East,96,2.3,5.8,99,0.00,,,0.00,WSDL version 420,2013-05-04 23:03:00,
2013-05-04 19:08:00,46.9,46.6,27.02,East,98,4.2,12.3,99,0.00,,,0.00,WSDL version 420,2013-05-04 23:08:00,
2013-05-04 19:13:00,46.9,46.6,27.02,East,84,4.1,12.3,99,0.04,,,0.04,WSDL version 420,2013-05-04 23:13:00,
2013-05-04 19:18:00,46.9,46.6,27.02,ENE,60,0.7,9.2,99,0.04,,,0.04,WSDL version 420,2013-05-04 23:18:00,
2013-05-04 19:23:00,47.1,46.8,27.02,East,100,2.8,6.5,99,0.04,,,0.04,WSDL version 420,2013-05-04 23:23:00,
2013-05-04 19:28:00,47.1,46.8,27.02,East,96,3.8,6.3,99,0.04,,,0.04,WSDL version 420,2013-05-04 23:28:00,
2013-05-04 19:33:00,47.1,46.8,27.02,East,85,3.6,8.7,99,0.04,,,0.04,WSDL version 420,2013-05-04 23:33:00,
2013-05-04 19:38:00,47.1,46.7,27.02,NE,48,4.0,8.7,98,0.04,,,0.04,WSDL version 420,2013-05-04 23:38:00,
2013-05-04 19:43:00,47.1,46.5,27.02,East,80,4.0,8.1,98,0.04,,,0.04,WSDL version 420,2013-05-04 23:43:00,
2013-05-04 19:48:00,47.1,46.5,27.02,NE,56,2.0,8.1,98,0.04,,,0.04,WSDL version 420,2013-05-04 23:48:00,
2013-05-04 19:53:00,46.9,46.3,27.02,East,93,4.5,6.3,98,0.04,,,0.04,WSDL version 420,2013-05-04 23:53:00,
2013-05-04 19:58:00,46.9,46.3,27.02,East,82,4.0,7.8,98,0.04,,,0.04,WSDL version 420,2013-05-04 23:58:00,
2013-05-04 20:03:00,46.9,46.3,27.02,North,354,1.9,7.8,98,0.04,,,0.04,WSDL version 420,2013-05-05 00:03:00,
2013-05-04 20:08:00,46.9,46.3,27.02,East,100,3.4,5.8,98,0.04,,,0.04,WSDL version 420,2013-05-05 00:08:00,
2013-05-04 20:13:00,46.9,46.3,27.02,SE,135,2.6,5.8,98,0.04,,,0.08,WSDL version 420,2013-05-05 00:13:00,
2013-05-04 20:18:00,46.9,46.3,27.02,NNE,18,2.6,3.6,98,0.04,,,0.08,WSDL version 420,2013-05-05 00:18:00,
2013-05-04 20:23:00,46.9,46.3,27.02,ENE,71,2.6,6.5,98,0.04,,,0.08,WSDL version 420,2013-05-05 00:23:00,
2013-05-04 20:28:00,47.0,46.4,27.02,East,85,5.4,9.8,98,0.04,,,0.08,WSDL version 420,2013-05-05 00:28:00,
2013-05-04 20:33:00,47.0,46.4,27.02,NE,56,2.4,9.8,98,0.04,,,0.08,WSDL version 420,2013-05-05 00:33:00,
2013-05-04 20:38:00,46.9,46.3,27.02,ENE,62,2.3,4.5,98,0.04,,,0.08,WSDL version 420,2013-05-05 00:38:00,
2013-05-04 20:43:00,47.0,46.4,27.02,East,82,2.7,5.8,98,0.04,,,0.08,WSDL version 420,2013-05-05 00:43:00,
2013-05-04 20:48:00,47.1,46.5,27.02,ESE,115,4.1,5.8,98,0.04,,,0.08,WSDL version 420,2013-05-05 00:48:00,
2013-05-04 20:53:00,47.1,46.5,27.02,NNW,329,1.5,5.6,98,0.04,,,0.08,WSDL version 420,2013-05-05 00:53:00,
2013-05-04 20:58:00,47.1,46.5,27.02,ENE,76,1.6,5.4,98,0.04,,,0.08,WSDL version 420,2013-05-05 00:58:00,
2013-05-04 21:03:00,47.1,46.5,27.02,East,84,3.5,6.5,98,0.09,,,0.13,WSDL version 420,2013-05-05 01:03:00,
2013-05-04 21:08:00,47.1,46.5,27.02,NW,318,3.2,6.9,98,0.09,,,0.13,WSDL version 420,2013-05-05 01:08:00,
2013-05-04 21:13:00,47.1,46.5,27.02,East,87,5.8,12.5,98,0.05,,,0.13,WSDL version 420,2013-05-05 01:13:00,
2013-05-04 21:18:00,47.1,46.5,27.05,ESE,121,3.3,12.5,98,0.05,,,0.13,WSDL version 420,2013-05-05 01:18:00,
2013-05-04 21:23:00,47.1,46.5,27.05,East,90,3.5,6.0,98,0.05,,,0.13,WSDL version 420,2013-05-05 01:23:00,
2013-05-04 21:28:00,47.1,46.5,27.05,NE,37,3.0,6.0,98,0.05,,,0.13,WSDL version 420,2013-05-05 01:28:00,
2013-05-04 21:33:00,47.1,46.5,27.02,NE,39,2.7,6.0,98,0.05,,,0.13,WSDL version 420,2013-05-05 01:33:00,
2013-05-04 21:38:00,47.1,46.5,27.02,ENE,70,3.0,7.6,98,0.09,,,0.17,WSDL version 420,2013-05-05 01:38:00,
2013-05-04 21:43:00,47.1,46.5,27.02,ENE,70,1.3,7.6,98,0.09,,,0.17,WSDL version 420,2013-05-05 01:43:00,
2013-05-04 21:48:00,47.1,46.5,27.05,NE,42,3.3,6.3,98,0.09,,,0.17,WSDL version 420,2013-05-05 01:48:00,
2013-05-04 21:53:00,47.1,46.5,27.05,NE,35,3.4,6.3,98,0.13,,,0.21,WSDL version 420,2013-05-05 01:53:00,
2013-05-04 21:58:00,47.1,46.5,27.05,NE,56,4.3,8.5,98,0.13,,,0.21,WSDL version 420,2013-05-05 01:58:00,
2013-05-04 22:03:00,47.1,46.5,27.05,East,96,3.5,8.5,98,0.08,,,0.21,WSDL version 420,2013-05-05 02:03:00,
2013-05-04 22:08:00,47.0,46.7,27.05,East,87,1.5,8.9,99,0.08,,,0.21,WSDL version 420,2013-05-05 02:08:00,
2013-05-04 22:13:00,47.0,46.7,27.05,NE,42,3.8,8.9,99,0.12,,,0.25,WSDL version 420,2013-05-05 02:13:00,
2013-05-04 22:18:00,46.9,46.6,27.08,NNE,18,2.3,7.8,99,0.16,,,0.29,WSDL version 420,2013-05-05 02:18:00,
2013-05-04 22:23:00,46.9,46.6,27.08,ENE,74,3.9,6.3,99,0.16,,,0.29,WSDL version 420,2013-05-05 02:23:00,
2013-05-04 22:28:00,46.9,46.6,27.08,East,85,3.5,7.4,99,0.20,,,0.33,WSDL version 420,2013-05-05 02:28:00,
2013-05-04 22:33:00,46.8,46.5,27.05,ENE,63,2.5,7.4,99,0.20,,,0.33,WSDL version 420,2013-05-05 02:33:00,
2013-05-04 22:38:00,46.8,46.5,27.05,North,355,1.8,4.3,99,0.16,,,0.33,WSDL version 420,2013-05-05 02:38:00,
2013-05-04 22:43:00,46.8,46.5,27.05,NNE,23,2.7,4.3,99,0.20,,,0.37,WSDL version 420,2013-05-05 02:43:00,
2013-05-04 22:48:00,46.7,46.4,27.08,WSW,239,1.9,5.4,99,0.24,,,0.41,WSDL version 420,2013-05-05 02:48:00,
2013-05-04 22:53:00,46.6,46.3,27.08,ENE,74,2.9,5.4,99,0.20,,,0.41,WSDL version 420,2013-05-05 02:53:00,
2013-05-04 22:58:00,46.5,46.2,27.08,NE,51,3.1,4.7,99,0.25,,,0.46,WSDL version 420,2013-05-05 02:58:00,
2013-05-04 23:03:00,46.4,46.1,27.05,ENE,78,3.7,4.9,99,0.25,,,0.46,WSDL version 420,2013-05-05 03:03:00,
2013-05-04 23:08:00,46.4,46.1,27.05,ENE,64,4.5,7.2,99,0.25,,,0.46,WSDL version 420,2013-05-05 03:08:00,
2013-05-04 23:13:00,46.4,46.1,27.05,ENE,65,5.6,10.3,99,0.25,,,0.50,WSDL version 420,2013-05-05 03:13:00,
2013-05-04 23:18:00,46.2,46.2,27.05,East,90,4.5,10.3,100,0.21,,,0.50,WSDL version 420,2013-05-05 03:18:00,
2013-05-04 23:23:00,46.2,46.2,27.05,East,85,3.3,7.6,100,0.25,,,0.54,WSDL version 420,2013-05-05 03:23:00,
2013-05-04 23:28:00,46.2,46.2,27.05,ESE,108,3.1,8.7,100,0.21,,,0.54,WSDL version 420,2013-05-05 03:28:00,
2013-05-04 23:33:00,46.2,46.2,27.05,East,96,2.6,8.7,100,0.21,,,0.54,WSDL version 420,2013-05-05 03:33:00,
2013-05-04 23:38:00,46.2,46.2,27.05,SE,124,2.2,5.8,100,0.25,,,0.58,WSDL version 420,2013-05-05 03:38:00,
2013-05-04 23:43:00,46.2,46.2,27.05,SE,125,2.6,5.8,100,0.25,,,0.62,WSDL version 420,2013-05-05 03:43:00,
2013-05-04 23:48:00,46.2,46.2,27.05,NW,309,2.1,5.6,100,0.21,,,0.62,WSDL version 420,2013-05-05 03:48:00,
2013-05-04 23:53:00,46.2,46.2,27.05,ENE,71,3.1,5.6,100,0.21,,,0.62,WSDL version 420,2013-05-05 03:53:00,
2013-05-04 23:58:00,46.2,46.2,27.05,East,80,3.1,5.6,100,0.20,,,0.66,WSDL version 420,2013-05-05 03:58:00,